Wind_Speed
39 40 41 42 42 43 44 44 45 45 45 45 45 45 46 45 45 46 46 46 46 46 47 47 47 46 47 46 45 45 45 45 45 44 44 45 45 45 45 44 44 44 44
40 40 41 42 43 43 43 44 45 46 47 47 47 47 47 47 47 47 47 48 47 47 48 48 48 48 48 48 48 47 47 47 47 47 46 45 46 46 46 46 46 46 46
39 40 41 41 42 44 45 45 45 45 47 48 49 48 48 49 49 48 48 48 49 49 49 49 49 49 49 49 50 49 50 49 50 50 48 48 48 48 49 48 48 48 48
37 39 40 42 43 44 45 45 45 45 46 48 49 49 49 50 50 50 50 50 50 50 50 51 51 51 50 50 50 50 50 50 50 51 51 51 51 51 51 50 50 50 50
36 37 38 41 42 43 45 45 45 46 47 48 49 49 50 51 51 52 52 52 52 52 52 52 52 52 52 51 51 50 51 50 50 51 52 52 52 53 53 52 52 52 51
36 38 39 40 42 43 44 45 45 46 47 47 48 48 49 50 51 52 53 53 53 53 53 53 54 54 54 54 53 52 52 51 51 52 53 53 53 53 53 53 53 53 53
37 38 40 41 42 43 44 45 46 46 47 48 48 49 50 50 51 52 53 54 54 54 54 54 55 55 56 56 56 55 55 54 53 53 53 54 54 54 54 55 54 53 53
36 38 40 41 42 43 43 44 44 45 46 47 48 48 49 51 51 52 53 54 54 55 56 56 56 57 57 57 57 57 57 57 56 55 54 53 53 54 55 56 56 55 54
35 37 38 40 41 42 43 43 43 44 44 44 46 47 47 49 50 51 52 54 55 55 56 56 57 57 57 57 57 57 57 58 57 56 55 55 54 54 55 55 56 55 54
35 36 36 37 39 41 43 44 44 44 44 45 45 47 47 48 49 50 51 52 54 55 56 56 56 57 57 57 57 57 58 57 57 57 56 56 55 54 54 54 55 55 55
35 35 36 37 38 39 42 44 45 46 46 46 46 47 48 49 49 49 51 52 53 54 55 56 56 56 56 57 57 57 58 58 57 57 56 56 57 56 55 55 55 56 57
35 35 36 37 38 39 40 42 44 45 46 47 47 47 49 49 50 50 50 51 52 53 54 55 55 55 56 56 57 56 57 57 57 57 56 56 56 57 57 56 57 58 59
36 37 38 38 39 39 40 41 43 44 46 47 47 47 48 48 49 50 51 51 52 52 53 53 53 54 56 56 56 56 57 57 57 57 56 56 56 56 57 58 59 59 59
38 39 39 39 40 40 40 41 42 43 45 45 47 47 48 48 49 49 50 51 52 52 53 52 52 53 55 56 56 57 57 57 57 56 56 57 57 58 58 59 60 61 61
39 40 40 40 41 41 41 41 42 42 44 45 46 47 47 48 48 49 50 51 52 52 52 52 53 53 54 55 55 56 56 57 57 57 57 57 58 59 60 60 61 61 62
38 39 40 40 41 41 42 42 42 42 43 44 45 46 46 46 47 48 49 50 51 51 52 53 53 53 54 54 55 56 56 57 57 57 58 58 59 60 60 60 60 61 62
39 39 40 40 40 41 41 42 42 42 42 43 44 45 45 46 47 48 48 49 50 52 53 54 54 54 55 55 56 57 57 57 57 57 58 58 59 60 61 61 61 61 61
40 40 40 41 41 41 42 42 42 42 42 43 44 45 46 46 46 47 48 49 49 51 53 54 54 55 55 55 56 56 56 57 57 57 57 58 58 59 60 60 61 61 61
40 40 40 40 41 41 42 42 42 42 42 43 43 45 46 47 47 48 49 49 50 50 52 53 54 54 55 56 57 57 57 57 57 58 58 58 58 58 59 60 60 60 60
39 39 39 39 40 40 41 41 42 42 43 43 43 44 46 47 47 48 49 49 50 51 51 52 53 54 55 55 56 57 57 57 58 58 58 58 58 58 58 59 59 59 59
39 39 39 39 40 40 40 41 41 42 43 43 44 44 45 46 47 48 48 49 50 51 52 52 52 53 54 54 55 55 56 57 57 57 57 57 58 58 58 58 57 57 58
39 39 39 39 39 40 40 40 41 42 43 44 45 45 46 47 47 48 48 49 49 50 51 52 52 52 52 53 54 55 55 55 55 55 56 56 57 57 57 57 57 57 57
39 39 38 38 39 39 39 40 40 41 42 43 44 45 46 47 48 48 48 49 49 49 50 51 52 52 52 53 53 54 54 55 55 55 56 56 56 56 57 57 57 57 57
39 39 38 39 40 40 40 40 40 41 41 42 43 44 45 47 47 48 49 49 49 49 49 50 51 51 52 53 53 53 54 54 55 55 55 55 55 56 56 56 56 56 57
39 39 39 39 40 40 40 40 40 40 41 42 43 43 45 46 47 47 48 48 48 48 48 48 49 50 51 51 51 51 52 53 53 54 54 54 55 55 56 56 56 56 56
39 39 39 39 40 40 40 40 40 40 40 41 42 43 44 44 45 46 46 46 47 47 47 47 48 48 49 50 50 51 51 51 52 53 53 54 53 54 55 55 55 55 55
Wind_Direction
257 258 257 256 255 255 255 254 253 253 253 253 253 253 253 252 251 251 252 252 253 254 255 255 256 255 256 257 257 259 259 259 259 259 260 259 259 258 258 258 258 258 258
259 258 258 256 256 255 255 255 255 256 255 254 254 254 254 253 252 252 252 253 254 254 255 256 256 257 257 258 258 259 259 259 259 259 259 259 258 258 258 258 258 258 259
260 259 257 256 256 256 256 256 256 257 256 256 255 255 254 254 254 254 253 253 254 255 255 256 257 258 258 259 260 260 259 259 259 259 259 259 259 259 258 259 259 259 259
263 261 259 257 257 257 256 256 257 257 257 256 256 255 254 254 253 254 254 254 255 256 256 257 257 258 259 260 260 260 260 260 259 259 259 259 259 258 258 259 259 259 260
265 262 260 258 257 258 258 258 257 257 256 256 256 255 255 254 254 254 255 255 256 257 257 257 258 258 259 260 261 262 260 260 259 259 259 260 260 259 259 259 259 260 261
266 264 262 261 259 258 259 259 258 257 256 256 256 256 256 255 255 255 255 256 257 257 258 259 259 259 259 260 261 262 262 261 261 260 261 261 262 261 261 260 260 260 260
267 265 264 264 262 260 259 259 259 258 257 257 257 257 256 256 256 256 256 256 257 257 258 259 260 260 261 261 261 261 261 261 261 261 262 262 263 262 262 261 260 259 259
268 267 266 265 264 262 261 260 260 260 259 259 258 259 258 257 257 257 257 257 257 257 258 259 260 261 261 261 261 261 261 262 262 262 262 263 264 263 263 262 261 259 258
271 270 269 267 265 264 262 261 260 260 260 260 260 259 259 258 257 257 257 258 258 259 259 259 260 260 261 261 260 261 262 262 261 261 262 263 263 263 262 262 261 261 259
272 271 271 270 267 265 262 261 260 260 261 261 261 261 260 259 259 258 258 259 259 260 260 260 260 260 259 259 260 261 261 261 261 261 261 261 261 262 262 261 261 261 261
272 271 270 270 268 266 264 261 261 261 260 261 261 262 262 261 261 260 260 260 260 260 261 261 261 260 260 260 260 260 261 261 261 261 262 261 261 261 261 261 262 262 262
273 272 271 271 270 268 266 265 263 262 261 261 261 262 262 262 262 261 261 261 261 261 262 262 261 261 260 260 260 261 260 260 260 261 260 260 260 261 261 261 261 262 263
274 272 271 271 271 270 268 268 266 264 262 261 261 262 262 263 262 262 261 261 262 262 262 261 260 260 260 260 260 261 260 260 260 260 260 260 260 261 261 261 262 262 262
276 274 273 272 272 271 270 269 267 266 264 263 262 262 263 262 262 262 262 262 262 262 262 261 261 261 261 261 261 261 261 261 261 260 260 261 261 262 262 262 262 262 262
278 277 275 273 273 273 271 269 268 267 266 264 264 264 264 263 262 262 262 261 261 262 261 260 261 261 261 261 261 262 261 261 261 261 262 262 262 263 263 263 263 263 263
279 278 276 274 274 273 271 270 269 268 267 265 265 265 264 263 263 263 262 262 262 261 260 260 262 262 261 261 261 262 261 261 261 262 262 263 263 263 264 265 265 265 265
279 278 277 275 274 274 272 271 270 269 268 267 266 266 265 264 264 264 264 263 263 262 261 261 262 262 262 261 262 262 262 262 262 262 263 263 263 264 265 265 265 265 265
279 278 278 277 276 275 273 272 270 269 268 268 267 266 266 266 266 265 265 265 265 264 263 262 262 263 262 262 262 262 262 262 262 263 263 263 263 264 265 266 266 265 264
280 279 279 278 277 277 275 273 271 269 269 268 268 267 267 267 267 267 267 267 266 266 265 264 263 263 263 263 262 262 261 262 262 263 263 264 264 265 266 266 266 265 265
281 280 279 279 279 278 277 274 272 271 271 270 269 269 268 268 268 268 269 269 268 267 267 266 264 263 263 263 263 263 262 262 262 263 264 265 265 265 265 265 266 266 265
282 281 280 280 279 279 278 276 274 272 272 272 271 270 269 269 269 269 270 270 269 268 267 266 265 264 263 263 263 263 263 263 263 264 264 265 265 265 266 266 266 266 265
284 283 282 281 280 279 279 277 276 274 273 272 272 271 271 271 270 270 270 271 270 269 267 266 265 264 264 263 263 263 263 264 264 264 265 265 265 265 265 266 266 265 265
286 285 284 282 281 281 280 279 277 275 274 274 273 273 273 273 272 272 272 272 271 270 269 267 266 265 264 264 263 263 264 265 265 265 265 265 264 265 265 265 266 266 266
286 286 284 283 283 282 281 280 278 277 277 276 276 275 276 275 275 274 273 273 272 270 269 268 266 265 264 264 264 264 265 265 265 265 265 265 265 265 265 265 265 265 265
287 286 285 284 284 283 283 281 280 279 278 278 278 278 278 277 276 275 274 273 272 271 269 268 267 265 264 265 265 265 265 265 265 265 265 265 265 265 264 264 265 265 265
287 287 286 286 285 284 284 282 281 280 280 280 279 279 280 279 278 276 276 275 273 271 270 269 268 266 266 266 266 266 265 265 265 265 265 265 265 265 265 265 265 264 264
Height
5700 5701 5702 5702 5703 5705 5706 5707 5709 5710 5712 5713 5714 5716 5718 5720 5722 5724 5725 5727 5729 5731 5733 5734 5736 5738 5739 5741 5742 5743 5744 5746 5747 5748 5749 5750 5752 5753 5754 5756 5757 5758 5760
5689 5690 5690 5691 5692 5693 5694 5696 5697 5699 5700 5701 5703 5704 5706 5708 5710 5711 5713 5715 5717 5719 5721 5723 5724 5726 5727 5729 5730 5732 5733 5734 5735 5737 5738 5739 5741 5742 5744 5745 5746 5747 5749
5678 5678 5679 5679 5680 5682 5683 5684 5685 5687 5688 5689 5690 5691 5693 5695 5697 5699 5701 5703 5705 5707 5708 5710 5712 5714 5715 5717 5718 5719 5721 5722 5723 5724 5726 5727 5729 5731 5732 5734 5735 5736 5737
5667 5667 5667 5668 5669 5670 5671 5672 5673 5674 5675 5676 5677 5678 5680 5682 5685 5687 5688 5690 5692 5694 5696 5697 5699 5701 5703 5704 5705 5706 5708 5709 5710 5711 5712 5714 5716 5718 5720 5722 5722 5724 5725
5656 5656 5656 5657 5657 5658 5659 5660 5661 5662 5663 5663 5664 5665 5667 5669 5671 5673 5675 5677 5679 5681 5682 5684 5686 5688 5689 5691 5692 5693 5694 5696 5697 5698 5699 5700 5702 5704 5706 5709 5710 5711 5712
5644 5644 5644 5645 5646 5646 5647 5648 5648 5649 5650 5650 5651 5652 5654 5655 5657 5659 5661 5663 5665 5667 5669 5670 5672 5674 5675 5677 5678 5680 5681 5682 5683 5684 5685 5687 5688 5689 5691 5694 5696 5697 5699
5633 5633 5633 5633 5633 5634 5634 5635 5636 5636 5637 5637 5638 5639 5640 5641 5643 5645 5647 5649 5651 5653 5654 5656 5658 5659 5661 5663 5664 5665 5667 5668 5669 5670 5671 5672 5673 5675 5676 5678 5680 5682 5684
5622 5621 5621 5621 5621 5621 5621 5622 5623 5623 5624 5624 5625 5625 5626 5628 5629 5630 5632 5634 5636 5638 5640 5641 5643 5644 5646 5648 5649 5650 5652 5653 5654 5655 5657 5658 5658 5659 5660 5662 5664 5667 5670
5611 5610 5610 5609 5609 5609 5609 5609 5610 5610 5611 5611 5611 5612 5612 5614 5615 5616 5618 5619 5621 5623 5624 5626 5627 5629 5631 5632 5634 5635 5636 5638 5639 5640 5642 5643 5643 5644 5645 5646 5648 5651 5654
5599 5599 5598 5597 5596 5596 5596 5597 5597 5597 5598 5598 5598 5599 5599 5600 5601 5602 5604 5605 5606 5608 5609 5610 5612 5613 5615 5616 5618 5620 5621 5622 5623 5625 5626 5627 5628 5629 5630 5631 5633 5634 5637
5588 5587 5586 5585 5584 5584 5583 5584 5584 5584 5584 5584 5585 5585 5586 5586 5587 5588 5589 5590 5591 5593 5594 5595 5596 5598 5599 5601 5602 5604 5605 5606 5608 5609 5610 5611 5613 5614 5615 5616 5617 5618 5620
5577 5576 5575 5574 5573 5572 5571 5571 5571 5570 5570 5571 5571 5572 5572 5572 5573 5573 5574 5575 5576 5577 5578 5579 5580 5582 5584 5585 5586 5588 5590 5591 5592 5593 5595 5596 5597 5598 5599 5601 5602 5603 5604
5565 5564 5563 5562 5560 5559 5559 5558 5557 5557 5557 5557 5557 5557 5558 5558 5558 5559 5559 5560 5561 5562 5563 5564 5565 5566 5568 5569 5571 5572 5574 5575 5576 5577 5579 5580 5581 5582 5584 5585 5586 5586 5587
5553 5552 5551 5550 5548 5547 5546 5545 5544 5544 5544 5543 5543 5543 5544 5544 5544 5544 5545 5545 5546 5547 5547 5548 5549 5551 5552 5553 5555 5556 5558 5559 5560 5562 5563 5564 5565 5566 5567 5568 5568 5569 5570
5541 5540 5539 5538 5536 5535 5534 5533 5531 5531 5530 5530 5530 5529 5529 5530 5530 5529 5530 5530 5531 5532 5532 5533 5534 5535 5536 5538 5539 5540 5542 5543 5544 5546 5547 5548 5548 5549 5549 5550 5551 5551 5552
5529 5528 5526 5525 5524 5522 5521 5520 5519 5518 5517 5517 5516 5516 5516 5516 5516 5515 5516 5516 5516 5517 5517 5518 5519 5520 5521 5522 5523 5524 5526 5527 5528 5529 5530 5531 5531 5531 5531 5532 5533 5533 5534
5517 5515 5514 5512 5511 5509 5508 5507 5506 5505 5504 5503 5503 5503 5502 5502 5502 5502 5502 5502 5502 5502 5502 5503 5504 5505 5505 5506 5507 5508 5510 5511 5512 5513 5513 5514 5514 5514 5514 5514 5515 5515 5515
5505 5503 5501 5499 5498 5496 5495 5494 5492 5492 5491 5490 5490 5489 5489 5489 5488 5488 5487 5487 5487 5487 5487 5487 5488 5489 5489 5490 5491 5492 5493 5494 5495 5496 5496 5497 5497 5496 5497 5497 5497 5497 5498
5492 5490 5488 5486 5485 5483 5482 5481 5480 5478 5478 5477 5476 5476 5475 5475 5474 5473 5473 5473 5472 5472 5471 5471 5472 5473 5473 5473 5474 5475 5476 5477 5479 5479 5479 5479 5480 5480 5479 5479 5480 5480 5481
5480 5478 5476 5474 5472 5471 5469 5468 5466 5466 5465 5464 5463 5462 5462 5461 5460 5459 5459 5458 5457 5457 5456 5456 5456 5456 5457 5457 5457 5458 5459 5461 5462 5462 5462 5462 5462 5462 5461 5461 5462 5463 5463
5468 5466 5464 5462 5460 5458 5456 5455 5453 5452 5452 5450 5449 5448 5447 5447 5446 5445 5444 5443 5442 5442 5441 5440 5440 5440 5440 5440 5441 5441 5442 5443 5444 5445 5445 5445 5445 5444 5444 5444 5445 5445 5445
5457 5454 5452 5450 5448 5446 5444 5442 5441 5439 5438 5437 5436 5434 5433 5432 5431 5430 5429 5428 5427 5426 5425 5424 5424 5424 5423 5424 5424 5424 5425 5426 5427 5428 5428 5428 5428 5427 5427 5427 5428 5428 5428
5445 5442 5440 5438 5435 5433 5431 5430 5428 5426 5425 5423 5422 5420 5419 5417 5416 5415 5413 5412 5411 5410 5409 5408 5408 5408 5407 5407 5407 5408 5408 5408 5410 5410 5410 5411 5410 5410 5410 5410 5410 5410 5411
5433 5430 5428 5425 5423 5421 5419 5417 5415 5413 5411 5409 5408 5406 5404 5402 5400 5399 5398 5396 5395 5394 5393 5392 5392 5392 5392 5391 5391 5391 5391 5392 5392 5392 5393 5393 5393 5393 5393 5393 5393 5393 5394
5420 5418 5415 5413 5410 5408 5406 5403 5402 5400 5398 5396 5394 5392 5390 5388 5386 5384 5382 5381 5379 5378 5377 5377 5376 5376 5376 5375 5375 5374 5375 5375 5375 5375 5376 5376 5376 5376 5376 5376 5376 5375 5376
5408 5405 5403 5400 5398 5395 5393 5390 5388 5386 5384 5382 5380 5378 5376 5373 5371 5369 5367 5364 5364 5362 5361 5360 5360 5360 5360 5359 5359 5358 5358 5358 5358 5358 5359 5359 5359 5358 5358 5358 5358 5358 5358